Location: Richmond
(37.5536°N, 77.4606°W)
Time: 14:49:35
(UTC-04:00)

ISS - Visible Passes

Search period start: 01 July 2016 00:00
Search period end: 11 July 2016 00:00
Orbit: 402 x 404 km, 51.6° (Epoch: 02 July)

Date Brightness Start Highest point End Pass type
(mag) Time Alt. Az. Time Alt. Az. Time Alt. Az.
06 Jul -0.6 04:46:46 10° SSE 04:48:00 12° SE 04:49:14 10° ESE visible
08 Jul -1.9 04:36:44 18° S 04:38:30 29° SE 04:41:23 10° ENE visible
09 Jul -0.9 03:46:02 14° SE 03:46:02 14° SE 03:47:42 10° E visible
09 Jul -2.7 05:18:48 10° WSW 05:21:58 48° NW 05:25:08 10° NE visible
10 Jul -3.4 04:27:53 35° SW 04:29:05 80° SE 04:32:21 10° NE visible
